User: anonymous   Login
Location: New Canada
(47.1017°N, 68.5042°W)
Time: 12:46:54
(UTC+00:00)
Language:

COSMOS 1818 DEB - Orbit

View from above orbital plane
View from above orbital plane
View from above satellite
View from above satellite

Ground track
Ground track

The orbit data is extracted from the following two-line orbital elements,

1 34174U 87011E   23316.32793769  .00001899  00000-0  67581-3 0  9994
2 34174  65.0045 334.7584 0021359 285.2338  88.3389 14.36687174207382
Epoch (UTC): 12 November 2023 07:52:13
Eccentricity: 0.0021359
inclination: 65.0045°
perigee height: 754 km
apogee height: 785 km
right ascension of ascending node: 334.7584°
argument of perigee: 285.2338°
revolutions per day: 14.36687174
mean anomaly at epoch: 88.3389°
orbit number at epoch: 20738

The dashed part of the orbit path shows where the satellite is in the earth's shadow,  

DLR